Weather in Aksay

Kazakhstan     51°09′55″N   53°01′18″E
temp.,
°C
wind,
m/s
gust,
m/s
humid.,
%
clouds,
%
prec.,
mm/h
press.,
hPa
HPBL,
m
17 june, thu
thu1723:00+20ne358199 0.0 101090
02:00+21nnw017180 0.0 101011
05:00+19wnw34800 0.0 101049
08:00+23wnw46700 0.0 1010330
11:00+27nw56540 0.0 10101139
14:00+30nw674410 0.0 10112125
17:00+29nnw97463 0.0 10112035
20:00+23n910690 0.0 1013862
18 june, fri
fri1823:00+20n712590 0.0 1016559
02:00+16n511720 0.0 1017319
05:00+15n511730 0.0 1018270
08:00+17nne712550 0.0 1019764
11:00+21n810420 0.0 10201649
14:00+23n78390 0.0 10202082
17:00+23n89380 0.0 10202023
20:00+21nne79460 0.0 10221325
19 june, sat
sat1923:00+16nne410600 0.0 1023238
02:00+13nne49703 0.0 1024187
05:00+12nne48747 0.0 1025165
08:00+16ne4663100 0.0 1027311
11:00+21ne56435 0.0 10261217
14:00+24nne44345 0.0 10251518
17:00+25n453554 0.0 10241581
20:00+23n35456 0.0 1024453
20 june, sun
sun2023:00+19nnw33593 0.0 102423
02:00+17nnw33670 0.0 102425
05:00+16nw33710 0.0 102335
08:00+20nw45620 0.0 1023247
11:00+25wnw56520 0.0 1022943
14:00+28nw66440 0.0 10211794
17:00+30nnw67390 0.0 10192162
20:00+28nnw57480 0.0 1019482
21 june, mon
mon2123:00+23n46670 0.0 102089
02:00+21n35750 0.0 102075
05:00+19nne33840 0.0 102046
08:00+23ne34690 0.0 1021300
11:00+27nne44490 0.0 10211368
14:00+30nne44390 0.0 10201858
17:00+30nne44365 0.0 10202281
20:00+29nne35425 0.0 1019288